Lid_Strength_Index
13 14 14 15 15 15 16 16 15 16 16 16 16 16 16 15 15 14 14 14 13 13 13 13 13 12 12 12 11 12 12 13 19 18 16 14 15 14 12 10 10 12 11
13 14 14 14 15 16 16 16 16 16 16 16 16 16 16 15 15 14 15 14 14 14 13 14 14 11 12 12 12 12 13 12 17 21 18 14 18 16 14 13 12 12 13
13 14 14 15 16 16 17 16 16 16 16 16 16 17 16 16 16 15 15 15 14 14 14 14 14 14 14 13 12 13 13 12 15 18 19 19 19 15 14 13 12 16 12
13 14 15 16 16 16 16 16 16 16 16 17 17 16 17 16 16 15 15 15 15 14 14 14 15 15 14 14 14 14 14 15 16 18 20 20 20 18 17 15 14 13 14
13 14 15 15 15 16 16 16 16 16 16 17 16 16 17 16 16 16 15 16 15 15 15 15 15 14 12 12 14 15 15 18 21 18 18 21 20 18 17 16 15 15 15
13 14 14 15 15 16 16 16 17 16 16 16 17 17 16 16 14 14 15 16 16 16 16 16 15 15 14 13 12 12 13 16 19 20 22 21 22 20 18 15 14 15 17
13 14 14 15 16 16 16 16 17 17 16 17 17 17 16 16 14 14 14 16 16 16 16 16 16 15 15 16 14 13 14 13 13 18 19 19 19 17 16 15 14 14 16
13 14 14 15 16 16 16 16 16 16 17 16 17 17 16 15 14 14 14 16 17 16 16 16 16 16 16 16 16 17 17 16 15 15 17 18 16 14 15 15 14 14 14
13 14 14 15 15 15 16 16 16 16 16 16 16 16 16 16 14 14 14 16 17 16 15 15 16 17 15 14 16 16 16 16 14 13 12 13 13 13 14 16 17 18 19
13 14 14 14 15 15 15 15 15 16 16 16 16 16 16 15 13 14 14 16 17 16 15 15 14 15 14 14 16 17 17 17 16 16 16 15 15 16 14 17 17 19 20
12 13 14 14 14 14 15 15 15 16 15 16 16 16 16 15 14 13 13 15 16 16 15 15 14 14 14 14 14 16 17 16 15 16 16 17 17 17 17 17 17 18 21
12 13 14 14 14 14 14 14 14 15 16 17 17 17 16 15 14 12 12 13 14 16 15 15 15 14 14 14 15 15 15 15 18 19 19 19 19 20 19 18 17 18 18
14 15 15 15 14 14 14 15 15 15 16 16 17 17 16 16 15 12 12 12 13 16 15 14 13 13 14 15 15 16 17 19 20 22 22 21 20 20 20 21 21 22 23
16 16 16 16 15 15 13 13 14 15 16 16 16 16 16 16 15 14 13 13 14 15 15 16 14 15 16 18 20 17 19 20 20 21 22 23 23 23 24 22 24 23 24
16 16 15 15 15 15 14 13 13 13 14 15 15 15 16 17 16 14 13 14 15 16 19 21 22 21 23 23 24 23 23 23 24 24 24 24 24 24 24 25 26 26 26
15 15 15 15 15 14 13 14 11 11 11 11 12 14 14 13 13 13 12 12 13 14 20 22 23 21 21 22 23 25 26 25 25 25 26 25 25 24 25 25 26 26 27
15 14 14 13 12 12 13 13 14 12 11 11 11 12 13 13 12 13 12 12 12 13 19 20 20 20 19 20 20 22 23 22 26 25 25 26 26 26 26 25 26 26 26
16 16 14 12 11 11 12 12 12 13 14 14 11 12 12 12 13 12 12 12 14 13 16 19 19 18 18 18 19 20 22 24 25 25 25 27 27 26 26 26 26 27 27
16 14 14 13 12 12 11 12 12 12 13 13 13 12 12 12 12 12 12 14 15 15 15 18 18 18 17 17 18 19 20 22 24 25 25 25 25 26 26 27 27 27 28
16 14 15 13 12 12 12 12 12 12 12 13 13 13 13 13 14 14 14 13 14 14 15 16 17 17 17 17 18 19 20 22 23 23 24 23 24 25 24 25 26 28 29
14 14 14 13 12 11 11 11 12 12 12 12 12 12 11 13 14 14 15 14 14 14 15 15 16 17 17 17 18 19 19 20 20 21 22 22 24 25 25 26 26 28 27
15 14 15 11 11 11 11 10 11 11 12 12 12 11 10 12 13 14 14 14 13 13 13 14 15 15 16 17 17 18 19 19 20 21 22 22 22 24 25 28 27 29 27
17 14 12 11 11 10 10 11 11 11 11 11 11 12 11 11 12 13 13 13 13 13 12 13 14 14 15 16 16 17 18 18 18 19 21 21 22 23 24 25 26 28 26
16 14 13 11 11 11 10 11 11 11 11 11 11 11 11 11 11 11 12 12 13 13 12 13 13 13 14 16 16 17 16 16 17 19 19 21 21 23 23 27 24 24 24
11 12 12 11 12 11 10 10 10 10 10 11 11 11 11 11 11 11 11 11 12 12 13 13 13 13 14 15 16 17 17 17 18 19 20 20 21 22 22 22 22 28 28
10 10 10 10 10 10 11 10 10 10 10 10 10 11 11 11 11 10 11 11 11 12 12 12 12 13 13 14 16 17 17 17 19 19 20 20 21 22 22 22 24 24 25